OEO584 LGTS-EDDP

Flight info

Callsign OEO584
Flight time 2h 11m
Altitude 34000
Route FSK N128 RUGAS DCT RAXAD DCT BAJUN DCT TONDO/N0448F360 DCT VEDER DCT KATQA DCT ODLIV DCT BEFRE DCT IVQOQ T951 YAWOY YAWOY1R
Aircraft A321/M-SDE3FGHIRWY/LB1

Departure

Time 2026-05-07 17:24
Airport Thessaloniki Macedonia International Airport (LGTS)

Arrival

Time 2026-05-07 19:36
Airport Leipzig/Halle Airport (EDDP)
Time Latitude Longitude Altitude Speed Heading
2026-05-07 14:43 40.52107 22.98368 7 ft 0 kts 14°
2026-05-07 17:14 40.52106 22.98368 34 ft 1 kts 14°
2026-05-07 17:14 40.52086 22.98361 34 ft 2 kts 14°
2026-05-07 17:14 40.52066 22.98350 34 ft 4 kts 50°
2026-05-07 17:15 40.52060 22.98322 34 ft 4 kts 103°
2026-05-07 17:15 40.52066 22.98291 34 ft 2 kts 104°
2026-05-07 17:15 40.52066 22.98289 34 ft 0 kts 104°
2026-05-07 17:19 40.52065 22.98297 34 ft 3 kts 104°
2026-05-07 17:19 40.52055 22.98349 34 ft 8 kts 104°
2026-05-07 17:20 40.52040 22.98429 34 ft 10 kts 104°
2026-05-07 17:20 40.52021 22.98527 34 ft 7 kts 104°
2026-05-07 17:20 40.52010 22.98590 34 ft 8 kts 104°
2026-05-07 17:20 40.52002 22.98630 34 ft 4 kts 104°
2026-05-07 17:21 40.51992 22.98672 34 ft 6 kts 124°
2026-05-07 17:21 40.51944 22.98682 34 ft 8 kts 175°
2026-05-07 17:21 40.51881 22.98666 34 ft 5 kts 192°
2026-05-07 17:21 40.51845 22.98680 34 ft 7 kts 140°
2026-05-07 17:22 40.51802 22.98706 34 ft 8 kts 178°
2026-05-07 17:22 40.51776 22.98700 34 ft 4 kts 192°
2026-05-07 17:22 40.51743 22.98691 34 ft 6 kts 192°
2026-05-07 17:22 40.51692 22.98675 34 ft 8 kts 207°
2026-05-07 17:23 40.51688 22.98601 33 ft 0 kts 286°
2026-05-07 17:23 40.51757 22.98261 34 ft 75 kts 283°
2026-05-07 17:24 40.51931 22.97311 32 ft 136 kts 283°
2026-05-07 17:24 40.52197 22.95879 53 ft 182 kts 283°
2026-05-07 17:24 40.52507 22.94257 685 ft 179 kts 283°
2026-05-07 17:24 40.52839 22.92659 1377 ft 184 kts 283°
2026-05-07 17:25 40.53220 22.90978 1625 ft 201 kts 285°
2026-05-07 17:25 40.53641 22.89184 1925 ft 214 kts 285°
2026-05-07 17:25 40.54134 22.87251 2222 ft 229 kts 292°
2026-05-07 17:25 40.55020 22.85410 2375 ft 254 kts 311°
2026-05-07 17:26 40.56469 22.83986 2779 ft 269 kts 337°
2026-05-07 17:26 40.58324 22.83619 3407 ft 270 kts
2026-05-07 17:26 40.60085 22.83742 4143 ft 270 kts
2026-05-07 17:26 40.61339 22.83827 4596 ft 273 kts
2026-05-07 17:27 40.63881 22.83867 5457 ft 277 kts 356°
2026-05-07 17:27 40.65159 22.83784 5926 ft 277 kts 355°
2026-05-07 17:27 40.67087 22.83625 6617 ft 278 kts 354°
2026-05-07 17:27 40.69020 22.83454 7281 ft 279 kts 354°
2026-05-07 17:28 40.70973 22.83318 7878 ft 283 kts 355°
2026-05-07 17:28 40.72959 22.83196 8489 ft 286 kts 355°
2026-05-07 17:28 40.74960 22.83060 9104 ft 288 kts 354°
2026-05-07 17:28 40.76968 22.82907 9736 ft 291 kts 354°
2026-05-07 17:29 40.79002 22.82737 10336 ft 293 kts 353°
2026-05-07 17:29 40.81077 22.82564 10647 ft 306 kts 354°
2026-05-07 17:29 40.83257 22.82427 10938 ft 320 kts 355°
2026-05-07 17:29 40.85521 22.82327 11246 ft 331 kts 355°
2026-05-07 17:30 40.87837 22.82233 11574 ft 342 kts 355°
2026-05-07 17:30 40.90278 22.82109 11928 ft 351 kts 355°
2026-05-07 17:30 40.92747 22.81932 12292 ft 360 kts 354°
2026-05-07 17:30 40.95180 22.81716 12649 ft 367 kts 354°
2026-05-07 17:31 40.97759 22.81487 13048 ft 374 kts 354°
2026-05-07 17:31 41.00361 22.81305 13580 ft 376 kts 355°
2026-05-07 17:31 41.02988 22.81147 14090 ft 379 kts 355°
2026-05-07 17:31 41.05623 22.80985 14558 ft 381 kts 355°
2026-05-07 17:32 41.08280 22.80811 15024 ft 383 kts 355°
2026-05-07 17:32 41.10948 22.80634 15480 ft 385 kts 355°
2026-05-07 17:32 41.13636 22.80452 15935 ft 387 kts 354°
2026-05-07 17:32 41.16299 22.80269 16382 ft 389 kts 354°
2026-05-07 17:33 41.19018 22.80082 16816 ft 392 kts 354°
2026-05-07 17:33 41.21751 22.79898 17249 ft 394 kts 354°
2026-05-07 17:33 41.24498 22.79711 17643 ft 397 kts 354°
2026-05-07 17:33 41.27268 22.79522 18016 ft 399 kts 354°
2026-05-07 17:34 41.30050 22.79330 18406 ft 401 kts 354°
2026-05-07 17:34 41.32829 22.78899 18752 ft 401 kts 345°
2026-05-07 17:34 41.35479 22.77802 19095 ft 399 kts 335°
2026-05-07 17:34 41.38049 22.76384 19453 ft 401 kts 333°
2026-05-07 17:35 41.40561 22.74767 19822 ft 401 kts 330°
2026-05-07 17:35 41.43059 22.73083 20184 ft 403 kts 330°
2026-05-07 17:35 41.45566 22.71387 20527 ft 405 kts 330°
2026-05-07 17:35 41.48053 22.69710 20869 ft 407 kts 330°
2026-05-07 17:36 41.50620 22.67979 21226 ft 409 kts 330°
2026-05-07 17:36 41.53127 22.66294 21569 ft 410 kts 330°
2026-05-07 17:36 41.55682 22.64576 21907 ft 412 kts 330°
2026-05-07 17:36 41.58246 22.62851 22232 ft 413 kts 330°
2026-05-07 17:37 41.60822 22.61115 22546 ft 415 kts 330°
2026-05-07 17:37 41.63406 22.59369 22856 ft 417 kts 330°
2026-05-07 17:37 41.66006 22.57613 23181 ft 419 kts 330°
2026-05-07 17:37 41.68619 22.55846 23485 ft 421 kts 330°
2026-05-07 17:38 41.71240 22.54072 23781 ft 422 kts 330°
2026-05-07 17:38 41.73864 22.52293 24029 ft 424 kts 330°
2026-05-07 17:38 41.76500 22.50506 24254 ft 426 kts 330°
2026-05-07 17:38 41.79145 22.48709 24505 ft 427 kts 330°
2026-05-07 17:39 41.81800 22.46905 24762 ft 429 kts 330°
2026-05-07 17:39 41.84463 22.45095 25012 ft 430 kts 330°
2026-05-07 17:39 41.87140 22.43273 25259 ft 431 kts 330°
2026-05-07 17:39 41.89814 22.41454 25515 ft 432 kts 330°
2026-05-07 17:40 41.92495 22.39627 25756 ft 433 kts 330°
2026-05-07 17:40 41.95186 22.37791 25992 ft 434 kts 330°
2026-05-07 17:40 41.97885 22.35944 26228 ft 436 kts 330°
2026-05-07 17:40 42.00491 22.34164 26435 ft 437 kts 330°
2026-05-07 17:41 42.03243 22.32281 26674 ft 438 kts 330°
2026-05-07 17:41 42.05926 22.30442 26906 ft 439 kts 330°
2026-05-07 17:41 42.08647 22.28578 27125 ft 440 kts 330°
2026-05-07 17:41 42.11388 22.26693 27315 ft 441 kts 330°
2026-05-07 17:42 42.14122 22.24813 27515 ft 443 kts 330°
2026-05-07 17:42 42.17462 22.22519 27839 ft 443 kts 330°
2026-05-07 17:42 42.20200 22.20633 28118 ft 442 kts 330°
2026-05-07 17:42 42.22935 22.18745 28399 ft 441 kts 330°
2026-05-07 17:43 42.25667 22.16865 28657 ft 440 kts 330°
2026-05-07 17:43 42.28383 22.14991 28954 ft 439 kts 330°
2026-05-07 17:43 42.31105 22.13107 29211 ft 438 kts 330°
2026-05-07 17:43 42.33813 22.11233 29479 ft 438 kts 330°
2026-05-07 17:44 42.36523 22.09358 29759 ft 437 kts 330°
2026-05-07 17:44 42.39198 22.07504 30031 ft 436 kts 330°
2026-05-07 17:44 42.41896 22.05634 30285 ft 435 kts 330°
2026-05-07 17:44 42.44589 22.03762 30497 ft 434 kts 329°
2026-05-07 17:45 42.47272 22.01895 30704 ft 434 kts 329°
2026-05-07 17:45 42.49957 22.00026 30917 ft 433 kts 329°
2026-05-07 17:45 42.52633 21.98163 31130 ft 433 kts 329°
2026-05-07 17:45 42.55313 21.96295 31317 ft 432 kts 329°
2026-05-07 17:46 42.57988 21.94424 31496 ft 432 kts 329°
2026-05-07 17:46 42.60665 21.92554 31657 ft 432 kts 329°
2026-05-07 17:46 42.63338 21.90684 31823 ft 432 kts 329°
2026-05-07 17:46 42.66009 21.88813 32035 ft 431 kts 329°
2026-05-07 17:47 42.68680 21.86944 32219 ft 431 kts 329°
2026-05-07 17:47 42.71344 21.85077 32378 ft 431 kts 329°
2026-05-07 17:47 42.73978 21.83226 32568 ft 431 kts 329°
2026-05-07 17:47 42.76639 21.81355 32751 ft 430 kts 329°
2026-05-07 17:48 42.79298 21.79487 32906 ft 430 kts 329°
2026-05-07 17:48 42.81958 21.77616 33089 ft 430 kts 329°
2026-05-07 17:48 42.84621 21.75738 33281 ft 429 kts 329°
2026-05-07 17:48 42.87268 21.73864 33436 ft 429 kts 329°
2026-05-07 17:49 42.89921 21.71990 33575 ft 429 kts 329°
2026-05-07 17:49 42.92574 21.70107 33715 ft 429 kts 329°
2026-05-07 17:49 42.95228 21.68230 33883 ft 429 kts 329°
2026-05-07 17:49 42.97865 21.66352 34073 ft 428 kts 328°
2026-05-07 17:50 43.03158 21.62587 34090 ft 429 kts 328°
2026-05-07 17:50 43.08353 21.58889 34082 ft 429 kts 329°
2026-05-07 17:51 43.13667 21.55132 34070 ft 430 kts 329°
2026-05-07 17:51 43.18977 21.51358 34064 ft 430 kts 329°
2026-05-07 17:52 43.24286 21.47565 34052 ft 430 kts 329°
2026-05-07 17:52 43.29602 21.43753 34052 ft 431 kts 328°
2026-05-07 17:53 43.34919 21.39933 34043 ft 432 kts 329°
2026-05-07 17:53 43.40231 21.36115 34040 ft 432 kts 329°
2026-05-07 17:54 43.45534 21.32294 34038 ft 431 kts 328°
2026-05-07 17:54 43.50857 21.28455 34034 ft 432 kts 328°
2026-05-07 17:55 43.56181 21.24601 34034 ft 432 kts 328°
2026-05-07 17:55 43.61494 21.20751 34035 ft 431 kts 328°
2026-05-07 17:56 43.66803 21.16896 34033 ft 430 kts 328°
2026-05-07 17:56 43.72104 21.13038 34029 ft 430 kts 328°
2026-05-07 17:57 43.76502 21.09827 34035 ft 431 kts 328°
2026-05-07 17:57 43.82700 21.05300 34032 ft 431 kts 328°
2026-05-07 17:58 43.87966 21.01446 34034 ft 431 kts 328°
2026-05-07 17:58 43.93259 20.97563 34039 ft 429 kts 328°
2026-05-07 17:59 43.98537 20.93682 34040 ft 429 kts 327°
2026-05-07 17:59 44.03810 20.89782 34036 ft 430 kts 327°
2026-05-07 18:00 44.09087 20.85875 34033 ft 430 kts 328°
2026-05-07 18:00 44.14322 20.82008 34037 ft 430 kts 327°
2026-05-07 18:01 44.19618 20.78095 34032 ft 431 kts 328°
2026-05-07 18:01 44.24875 20.74200 34035 ft 431 kts 327°
2026-05-07 18:02 44.32817 20.68284 34031 ft 431 kts 327°
2026-05-07 18:03 44.38114 20.64330 34031 ft 432 kts 327°
2026-05-07 18:03 44.43413 20.60371 34034 ft 432 kts 327°
2026-05-07 18:04 44.48716 20.56394 34032 ft 433 kts 327°
2026-05-07 18:04 44.54032 20.52392 34029 ft 434 kts 327°
2026-05-07 18:05 44.59361 20.48384 34028 ft 435 kts 327°
2026-05-07 18:05 44.64692 20.44354 34028 ft 435 kts 327°
2026-05-07 18:06 44.70038 20.40313 34030 ft 436 kts 327°
2026-05-07 18:06 44.75387 20.36268 34022 ft 437 kts 327°
2026-05-07 18:07 44.80712 20.32225 34026 ft 438 kts 327°
2026-05-07 18:07 44.86091 20.28135 34046 ft 439 kts 327°
2026-05-07 18:08 44.91467 20.24038 34038 ft 440 kts 327°
2026-05-07 18:08 44.96861 20.19901 34027 ft 441 kts 327°
2026-05-07 18:09 45.02254 20.15773 34032 ft 441 kts 327°
2026-05-07 18:09 45.07638 20.11652 34027 ft 442 kts 327°
2026-05-07 18:10 45.13050 20.07497 34025 ft 442 kts 327°
2026-05-07 18:10 45.18359 20.03400 34021 ft 443 kts 327°
2026-05-07 18:11 45.23776 19.99214 34013 ft 443 kts 327°
2026-05-07 18:11 45.29196 19.95025 34010 ft 444 kts 327°
2026-05-07 18:12 45.34615 19.90818 34011 ft 444 kts 327°
2026-05-07 18:12 45.40034 19.86603 34010 ft 444 kts 326°
2026-05-07 18:13 45.45453 19.82380 34010 ft 444 kts 326°
2026-05-07 18:13 45.50867 19.78155 34012 ft 444 kts 326°
2026-05-07 18:14 45.56280 19.73919 34009 ft 443 kts 326°
2026-05-07 18:14 45.61690 19.69673 33999 ft 444 kts 326°
2026-05-07 18:15 45.67101 19.65413 34005 ft 443 kts 326°
2026-05-07 18:15 45.72470 19.61190 34005 ft 443 kts 326°
2026-05-07 18:16 45.77868 19.56936 34004 ft 442 kts 326°
2026-05-07 18:16 45.78757 19.56233 34010 ft 442 kts 326°
2026-05-07 18:17 45.82098 19.53587 34226 ft 412 kts 325°
2026-05-07 18:17 45.84561 19.51600 33968 ft 401 kts 324°
2026-05-07 18:17 45.86933 19.49614 33139 ft 403 kts 323°
2026-05-07 18:17 45.89402 19.47522 32145 ft 410 kts 324°
2026-05-07 18:18 45.91881 19.45525 31508 ft 408 kts 326°
2026-05-07 18:18 45.94301 19.43697 32201 ft 387 kts 326°
2026-05-07 18:18 45.96663 19.41858 32412 ft 386 kts 326°
2026-05-07 18:19 46.01415 19.38175 32562 ft 390 kts 325°
2026-05-07 18:19 46.06245 19.34443 32662 ft 397 kts 327°
2026-05-07 18:19 46.08702 19.32628 32789 ft 398 kts 327°
2026-05-07 18:20 46.11172 19.30813 32959 ft 398 kts 327°
2026-05-07 18:20 46.13632 19.29006 33116 ft 398 kts 327°
2026-05-07 18:20 46.16102 19.27184 33258 ft 398 kts 326°
2026-05-07 18:20 46.18398 19.25485 33368 ft 398 kts 326°
2026-05-07 18:21 46.20864 19.23656 33477 ft 399 kts 326°
2026-05-07 18:21 46.23862 19.21432 33633 ft 400 kts 326°
2026-05-07 18:21 46.28819 19.17753 33867 ft 400 kts 326°
2026-05-07 18:21 46.33581 19.14207 34056 ft 402 kts 326°
2026-05-07 18:22 46.36069 19.12355 34142 ft 402 kts 326°
2026-05-07 18:22 46.41050 19.08653 34391 ft 381 kts 326°
2026-05-07 18:22 46.43346 19.06936 34314 ft 362 kts 324°
2026-05-07 18:23 46.45527 19.05284 33841 ft 358 kts 326°
2026-05-07 18:23 46.47794 19.03682 32837 ft 367 kts 327°
2026-05-07 18:23 46.50130 19.01973 31519 ft 385 kts 326°
2026-05-07 18:23 46.52553 19.00133 30326 ft 401 kts 326°
2026-05-07 18:24 46.55315 18.97954 28935 ft 416 kts 325°
2026-05-07 18:24 46.57851 18.95842 27762 ft 426 kts 324°
2026-05-07 18:24 46.60404 18.93643 27229 ft 421 kts 324°
2026-05-07 18:24 46.62881 18.91450 26714 ft 415 kts 322°
2026-05-07 18:25 46.65299 18.89189 26070 ft 413 kts 321°
2026-05-07 18:25 46.67698 18.86865 25380 ft 414 kts 321°
2026-05-07 18:25 46.70124 18.84597 24695 ft 416 kts 324°
2026-05-07 18:25 46.72684 18.82596 24063 ft 417 kts 329°
2026-05-07 18:26 46.75315 18.80855 23586 ft 413 kts 333°
2026-05-07 18:26 46.77897 18.79258 23507 ft 393 kts 331°
2026-05-07 18:26 46.80333 18.77657 23410 ft 374 kts 330°
2026-05-07 18:26 46.82647 18.76126 23313 ft 356 kts 330°
2026-05-07 18:27 46.84832 18.74681 23052 ft 344 kts 330°
2026-05-07 18:27 46.87007 18.73239 22459 ft 341 kts 330°
2026-05-07 18:27 46.89158 18.71823 21856 ft 338 kts 329°
2026-05-07 18:27 46.91369 18.70334 20355 ft 363 kts 330°
2026-05-07 18:28 46.93688 18.68739 19626 ft 366 kts 329°
2026-05-07 18:28 46.95950 18.67137 19178 ft 358 kts 329°
2026-05-07 18:28 46.98219 18.65646 18646 ft 355 kts 333°
2026-05-07 18:28 47.00518 18.64351 18085 ft 353 kts 337°
2026-05-07 18:29 47.02770 18.63123 17950 ft 333 kts 331°
2026-05-07 18:29 47.04814 18.61725 17943 ft 319 kts 327°
2026-05-07 18:29 47.06802 18.60288 17891 ft 320 kts 328°
2026-05-07 18:29 47.08785 18.58873 17863 ft 320 kts 328°
2026-05-07 18:30 47.10785 18.57515 17835 ft 315 kts 332°
2026-05-07 18:30 47.12799 18.56153 17999 ft 313 kts 318°
2026-05-07 18:30 47.14476 18.54212 18603 ft 306 kts 315°
2026-05-07 18:30 47.16130 18.52351 18940 ft 310 kts 320°
2026-05-07 18:31 47.17943 18.50608 19272 ft 314 kts 323°
2026-05-07 18:31 47.19840 18.48966 19609 ft 317 kts 325°
2026-05-07 18:31 47.21757 18.47399 19922 ft 319 kts 326°
2026-05-07 18:31 47.23715 18.45841 20223 ft 321 kts 326°
2026-05-07 18:32 47.25694 18.44288 20538 ft 323 kts 327°
2026-05-07 18:32 47.27684 18.42734 20838 ft 325 kts 327°
2026-05-07 18:32 47.29691 18.41174 21142 ft 327 kts 327°
2026-05-07 18:32 47.31713 18.39606 21442 ft 329 kts 327°
2026-05-07 18:33 47.33740 18.38032 21734 ft 330 kts 327°
2026-05-07 18:33 47.35785 18.36444 22030 ft 332 kts 327°
2026-05-07 18:33 47.37836 18.34851 22319 ft 334 kts 327°
2026-05-07 18:33 47.39876 18.33262 22613 ft 336 kts 327°
2026-05-07 18:34 47.41948 18.31647 22893 ft 338 kts 326°
2026-05-07 18:34 47.44032 18.30022 23149 ft 340 kts 326°
2026-05-07 18:34 47.46127 18.28384 23418 ft 341 kts 326°
2026-05-07 18:34 47.48230 18.26739 23674 ft 343 kts 326°
2026-05-07 18:35 47.50350 18.25083 23884 ft 345 kts 326°
2026-05-07 18:35 47.52485 18.23413 24093 ft 348 kts 326°
2026-05-07 18:35 47.54628 18.21731 24318 ft 349 kts 326°
2026-05-07 18:35 47.56775 18.20047 24521 ft 351 kts 326°
2026-05-07 18:36 47.58939 18.18351 24730 ft 353 kts 326°
2026-05-07 18:36 47.61105 18.16643 24926 ft 355 kts 326°
2026-05-07 18:36 47.63296 18.14915 25132 ft 357 kts 326°
2026-05-07 18:36 47.65492 18.13190 25336 ft 358 kts 326°
2026-05-07 18:37 47.67707 18.11449 25533 ft 360 kts 326°
2026-05-07 18:37 47.69923 18.09700 25720 ft 362 kts 326°
2026-05-07 18:37 47.72147 18.07945 25902 ft 363 kts 326°
2026-05-07 18:37 47.74386 18.06177 26093 ft 365 kts 326°
2026-05-07 18:38 47.76637 18.04398 26280 ft 366 kts 326°
2026-05-07 18:38 47.78885 18.02618 26461 ft 368 kts 326°
2026-05-07 18:38 47.81152 18.00821 26634 ft 369 kts 326°
2026-05-07 18:38 47.83424 17.99015 26804 ft 371 kts 326°
2026-05-07 18:39 47.85730 17.97355 26979 ft 376 kts 331°
2026-05-07 18:39 47.88152 17.95844 27240 ft 378 kts 332°
2026-05-07 18:39 47.90587 17.94360 27494 ft 380 kts 332°
2026-05-07 18:39 47.93046 17.92858 27719 ft 383 kts 332°
2026-05-07 18:40 47.95519 17.91348 27948 ft 385 kts 332°
2026-05-07 18:40 47.98006 17.89820 28180 ft 387 kts 332°
2026-05-07 18:40 48.00499 17.88284 28402 ft 389 kts 332°
2026-05-07 18:40 48.02938 17.86770 28602 ft 391 kts 331°
2026-05-07 18:41 48.05467 17.85201 28831 ft 393 kts 332°
2026-05-07 18:41 48.07999 17.83631 29057 ft 395 kts 332°
2026-05-07 18:41 48.10549 17.82055 29270 ft 397 kts 332°
2026-05-07 18:41 48.13104 17.80473 29481 ft 399 kts 331°
2026-05-07 18:42 48.15682 17.78873 29672 ft 401 kts 332°
2026-05-07 18:42 48.18265 17.77264 29873 ft 403 kts 331°
2026-05-07 18:42 48.20852 17.75652 30066 ft 404 kts 331°
2026-05-07 18:42 48.23453 17.74030 30240 ft 406 kts 331°
2026-05-07 18:43 48.25977 17.72460 30415 ft 406 kts 331°
2026-05-07 18:43 48.28597 17.70824 30604 ft 407 kts 331°
2026-05-07 18:43 48.31208 17.69186 30779 ft 408 kts 331°
2026-05-07 18:43 48.33833 17.67538 30975 ft 409 kts 331°
2026-05-07 18:44 48.36456 17.65892 31139 ft 410 kts 331°
2026-05-07 18:44 48.39095 17.64239 31318 ft 411 kts 332°
2026-05-07 18:44 48.41739 17.62578 31480 ft 412 kts 332°
2026-05-07 18:44 48.44383 17.60915 31647 ft 413 kts 332°
2026-05-07 18:45 48.47033 17.59244 31808 ft 413 kts 332°
2026-05-07 18:45 48.49652 17.57591 31973 ft 414 kts 332°
2026-05-07 18:45 48.52314 17.55911 32130 ft 415 kts 332°
2026-05-07 18:45 48.54980 17.54228 32293 ft 416 kts 332°
2026-05-07 18:46 48.57653 17.52531 32453 ft 416 kts 332°
2026-05-07 18:46 48.60323 17.50838 32615 ft 417 kts 332°
2026-05-07 18:46 48.62999 17.49137 32764 ft 417 kts 332°
2026-05-07 18:46 48.65679 17.47437 32902 ft 418 kts 332°
2026-05-07 18:47 48.68365 17.45731 33052 ft 419 kts 332°
2026-05-07 18:47 48.73767 17.42297 33208 ft 423 kts 332°
2026-05-07 18:47 48.76452 17.40577 33373 ft 423 kts 332°
2026-05-07 18:48 48.79160 17.38851 33603 ft 422 kts 332°
2026-05-07 18:48 48.81859 17.37126 33773 ft 421 kts 333°
2026-05-07 18:48 48.84559 17.35400 33918 ft 421 kts 333°
2026-05-07 18:48 48.87267 17.33661 34037 ft 422 kts 333°
2026-05-07 18:49 48.89971 17.31911 34140 ft 422 kts 332°
2026-05-07 18:49 48.95415 17.28418 34168 ft 429 kts 333°
2026-05-07 18:49 48.98194 17.26631 34008 ft 438 kts 333°
2026-05-07 18:50 49.00949 17.24607 33922 ft 440 kts 325°
2026-05-07 18:50 49.03441 17.21921 33932 ft 438 kts 314°
2026-05-07 18:50 49.05564 17.18801 33961 ft 438 kts 310°
2026-05-07 18:51 49.09847 17.12019 33979 ft 447 kts 310°
2026-05-07 18:51 49.14231 17.05151 33979 ft 454 kts 310°
2026-05-07 18:52 49.18631 16.98282 33975 ft 455 kts 310°
2026-05-07 18:52 49.23047 16.91346 33972 ft 455 kts 310°
2026-05-07 18:53 49.27472 16.84389 33975 ft 456 kts 310°
2026-05-07 18:53 49.31882 16.77426 33968 ft 456 kts 310°
2026-05-07 18:54 49.36299 16.70414 33975 ft 456 kts 310°
2026-05-07 18:54 49.40712 16.63414 33974 ft 456 kts 310°
2026-05-07 18:55 49.45127 16.56409 33992 ft 456 kts 310°
2026-05-07 18:55 49.49543 16.49384 33990 ft 457 kts 310°
2026-05-07 18:56 49.53925 16.42394 33996 ft 456 kts 310°
2026-05-07 18:56 49.58332 16.35338 33997 ft 456 kts 309°
2026-05-07 18:57 49.62725 16.28272 33994 ft 456 kts 309°
2026-05-07 18:57 49.67112 16.21203 33999 ft 456 kts 309°
2026-05-07 18:58 49.71490 16.14129 33993 ft 456 kts 309°
2026-05-07 18:58 49.75878 16.07022 33995 ft 456 kts 309°
2026-05-07 18:59 49.80228 15.99954 33992 ft 456 kts 309°
2026-05-07 18:59 49.84606 15.92808 33995 ft 457 kts 309°
2026-05-07 19:00 49.88968 15.85668 33993 ft 457 kts 309°
2026-05-07 19:00 49.93286 15.78605 34000 ft 456 kts 309°
2026-05-07 19:01 49.97642 15.71434 33998 ft 456 kts 309°
2026-05-07 19:01 50.01959 15.64325 33996 ft 455 kts 309°
2026-05-07 19:02 50.06277 15.57189 33991 ft 455 kts 309°
2026-05-07 19:02 50.10607 15.50004 33990 ft 455 kts 309°
2026-05-07 19:03 50.14944 15.42797 33990 ft 455 kts 310°
2026-05-07 19:03 50.19264 15.35594 33990 ft 454 kts 310°
2026-05-07 19:04 50.23573 15.28393 33987 ft 453 kts 310°
2026-05-07 19:04 50.27871 15.21190 33989 ft 452 kts 310°
2026-05-07 19:05 50.31430 15.15204 33996 ft 452 kts 310°
2026-05-07 19:05 50.35708 15.07990 33994 ft 451 kts 310°
2026-05-07 19:06 50.39970 15.00789 34006 ft 450 kts 310°
2026-05-07 19:06 50.46422 14.90073 33998 ft 452 kts 316°
2026-05-07 19:07 50.48978 14.87198 34003 ft 455 kts 328°
2026-05-07 19:07 50.51895 14.85223 34014 ft 460 kts 341°
2026-05-07 19:07 50.58142 14.82915 34028 ft 461 kts 346°
2026-05-07 19:08 50.64374 14.80711 34028 ft 461 kts 345°
2026-05-07 19:08 50.70629 14.78431 33987 ft 460 kts 345°
2026-05-07 19:09 50.73779 14.77273 33626 ft 459 kts 345°
2026-05-07 19:09 50.76853 14.76144 33342 ft 460 kts 345°
2026-05-07 19:09 50.79961 14.74998 33071 ft 460 kts 345°
2026-05-07 19:09 50.83078 14.73854 32801 ft 459 kts 345°
2026-05-07 19:10 50.86172 14.72606 32525 ft 458 kts 340°
2026-05-07 19:10 50.89092 14.70623 32161 ft 455 kts 329°
2026-05-07 19:10 50.91674 14.67761 31778 ft 452 kts 317°
2026-05-07 19:10 50.93787 14.64191 31398 ft 449 kts 305°
2026-05-07 19:11 50.95401 14.60050 30971 ft 447 kts 294°
2026-05-07 19:11 50.96494 14.55452 30515 ft 445 kts 285°
2026-05-07 19:11 50.97325 14.50737 30043 ft 446 kts 284°
2026-05-07 19:11 50.98139 14.45970 29465 ft 446 kts 284°
2026-05-07 19:12 50.98953 14.41227 28892 ft 445 kts 284°
2026-05-07 19:12 50.99769 14.36522 28343 ft 441 kts 285°
2026-05-07 19:12 51.00592 14.31860 27792 ft 437 kts 285°
2026-05-07 19:12 51.01414 14.27232 27253 ft 434 kts 285°
2026-05-07 19:13 51.02223 14.22639 26727 ft 430 kts 285°
2026-05-07 19:13 51.03024 14.18073 26201 ft 427 kts 285°
2026-05-07 19:13 51.03819 14.13536 25708 ft 424 kts 285°
2026-05-07 19:13 51.04604 14.09045 25208 ft 421 kts 285°
2026-05-07 19:14 51.05381 14.04577 24645 ft 418 kts 285°
2026-05-07 19:14 51.06156 14.00112 24031 ft 417 kts 285°
2026-05-07 19:14 51.06924 13.95670 23354 ft 416 kts 286°
2026-05-07 19:14 51.07689 13.91234 22618 ft 415 kts 285°
2026-05-07 19:15 51.08449 13.86821 21885 ft 414 kts 285°
2026-05-07 19:15 51.09206 13.82421 21176 ft 412 kts 285°
2026-05-07 19:15 51.09961 13.78024 20483 ft 411 kts 285°
2026-05-07 19:15 51.10696 13.73716 19897 ft 407 kts 285°
2026-05-07 19:16 51.11432 13.69395 19373 ft 401 kts 285°
2026-05-07 19:16 51.12154 13.65144 18879 ft 396 kts 285°
2026-05-07 19:16 51.12868 13.60941 18391 ft 390 kts 284°
2026-05-07 19:16 51.13034 13.59965 18268 ft 389 kts 284°
2026-05-07 19:17 51.13502 13.57192 17883 ft 386 kts 284°
2026-05-07 19:17 51.14191 13.53094 17332 ft 381 kts 284°
2026-05-07 19:17 51.14875 13.49040 16796 ft 376 kts 284°
2026-05-07 19:17 51.15546 13.45055 16279 ft 371 kts 284°
2026-05-07 19:18 51.16208 13.41101 15769 ft 367 kts 284°
2026-05-07 19:18 51.16864 13.37179 15266 ft 364 kts 284°
2026-05-07 19:18 51.17389 13.33253 14765 ft 360 kts 275°
2026-05-07 19:18 51.17473 13.29334 14321 ft 357 kts 269°
2026-05-07 19:19 51.17448 13.25386 14012 ft 356 kts 269°
2026-05-07 19:19 51.17417 13.21399 13727 ft 354 kts 269°
2026-05-07 19:19 51.17393 13.17490 13455 ft 353 kts 269°
2026-05-07 19:19 51.17371 13.13583 13185 ft 352 kts 269°
2026-05-07 19:20 51.17351 13.09698 12924 ft 350 kts 269°
2026-05-07 19:20 51.17333 13.05873 12670 ft 349 kts 269°
2026-05-07 19:20 51.17312 13.01968 12416 ft 345 kts 269°
2026-05-07 19:20 51.17291 12.98345 12177 ft 336 kts 269°
2026-05-07 19:21 51.17269 12.94695 12051 ft 321 kts 269°
2026-05-07 19:21 51.17247 12.91180 12043 ft 304 kts 269°
2026-05-07 19:21 51.17227 12.87946 12050 ft 292 kts 269°
2026-05-07 19:21 51.17207 12.84685 12069 ft 291 kts 270°
2026-05-07 19:22 51.17437 12.81527 12036 ft 291 kts 286°
2026-05-07 19:22 51.18155 12.78511 11867 ft 290 kts 293°
2026-05-07 19:22 51.18961 12.75566 11626 ft 289 kts 293°
2026-05-07 19:22 51.19755 12.72636 11391 ft 288 kts 293°
2026-05-07 19:23 51.20539 12.69696 11144 ft 287 kts 292°
2026-05-07 19:23 51.21314 12.66772 10898 ft 286 kts 292°
2026-05-07 19:23 51.22083 12.63861 10727 ft 285 kts 292°
2026-05-07 19:23 51.22851 12.60941 10587 ft 284 kts 292°
2026-05-07 19:24 51.23612 12.58035 10466 ft 284 kts 292°
2026-05-07 19:24 51.24371 12.55129 10342 ft 283 kts 292°
2026-05-07 19:24 51.25127 12.52227 10232 ft 283 kts 292°
2026-05-07 19:24 51.25700 12.49235 10100 ft 283 kts 277°
2026-05-07 19:25 51.25709 12.46089 10078 ft 283 kts 266°
2026-05-07 19:25 51.25547 12.42954 10085 ft 283 kts 266°
2026-05-07 19:25 51.25381 12.39821 10096 ft 283 kts 266°
2026-05-07 19:25 51.25222 12.36675 10102 ft 283 kts 266°
2026-05-07 19:26 51.25069 12.33547 10103 ft 283 kts 266°
2026-05-07 19:26 51.24919 12.30407 10104 ft 283 kts 266°
2026-05-07 19:26 51.24788 12.27279 10101 ft 283 kts 270°
2026-05-07 19:26 51.25004 12.24181 9934 ft 281 kts 283°
2026-05-07 19:27 51.25484 12.21171 9462 ft 281 kts 286°
2026-05-07 19:27 51.25997 12.18133 8934 ft 283 kts 286°
2026-05-07 19:27 51.26505 12.15084 8404 ft 286 kts 285°
2026-05-07 19:27 51.27012 12.11996 7877 ft 288 kts 285°
2026-05-07 19:28 51.27518 12.08888 7346 ft 290 kts 285°
2026-05-07 19:28 51.28028 12.05752 6832 ft 292 kts 285°
2026-05-07 19:28 51.28541 12.02598 6304 ft 294 kts 285°
2026-05-07 19:28 51.29055 11.99428 5766 ft 295 kts 285°
2026-05-07 19:29 51.29566 11.96269 5393 ft 290 kts 285°
2026-05-07 19:29 51.30053 11.93202 5192 ft 280 kts 284°
2026-05-07 19:29 51.30518 11.90248 5035 ft 268 kts 289°
2026-05-07 19:29 51.31412 11.87744 4564 ft 258 kts 314°
2026-05-07 19:30 51.32879 11.86093 3758 ft 262 kts 340°
2026-05-07 19:30 51.34609 11.85754 3615 ft 245 kts
2026-05-07 19:30 51.36236 11.86067 3411 ft 239 kts
2026-05-07 19:30 51.37869 11.85959 3126 ft 235 kts
2026-05-07 19:31 51.39343 11.86785 3003 ft 222 kts 40°
2026-05-07 19:31 51.40153 11.88833 2974 ft 222 kts 77°
2026-05-07 19:31 51.40225 11.91290 2989 ft 217 kts 93°
2026-05-07 19:31 51.40111 11.93591 2996 ft 195 kts 93°
2026-05-07 19:32 51.40062 11.95640 3015 ft 175 kts 89°
2026-05-07 19:32 51.40092 11.97562 2996 ft 172 kts 85°
2026-05-07 19:32 51.40172 11.99462 2989 ft 172 kts 85°
2026-05-07 19:32 51.40260 12.01367 2860 ft 171 kts 84°
2026-05-07 19:33 51.40349 12.03268 2650 ft 171 kts 84°
2026-05-07 19:33 51.40438 12.05158 2431 ft 170 kts 84°
2026-05-07 19:33 51.40526 12.07044 2225 ft 168 kts 84°
2026-05-07 19:33 51.40609 12.08830 1963 ft 154 kts 84°
2026-05-07 19:34 51.40686 12.10477 1728 ft 144 kts 84°
2026-05-07 19:34 51.40762 12.12076 1524 ft 143 kts 84°
2026-05-07 19:34 51.40835 12.13649 1325 ft 144 kts 84°
2026-05-07 19:34 51.40910 12.15244 1119 ft 144 kts 84°
2026-05-07 19:35 51.40985 12.16833 918 ft 143 kts 84°
2026-05-07 19:35 51.41060 12.18441 726 ft 143 kts 84°
2026-05-07 19:35 51.41136 12.20018 536 ft 141 kts 81°
2026-05-07 19:35 51.41214 12.21508 458 ft 123 kts 86°
2026-05-07 19:36 51.41266 12.22500 467 ft 48 kts 85°
2026-05-07 19:36 51.41284 12.23037 473 ft 41 kts 86°
2026-05-07 19:36 51.41219 12.23266 475 ft 24 kts 172°
2026-05-07 19:36 51.41134 12.23263 477 ft 11 kts 223°
2026-05-07 19:37 51.41118 12.23184 476 ft 0 kts 262°
2026-05-07 19:38 51.41118 12.23181 476 ft 4 kts 262°
2026-05-07 19:38 51.41111 12.23083 475 ft 11 kts 265°
2026-05-07 19:38 51.41104 12.22953 473 ft 13 kts 265°
2026-05-07 19:38 51.41098 12.22796 470 ft 15 kts 266°
2026-05-07 19:39 51.41091 12.22644 467 ft 11 kts 266°
2026-05-07 19:39 51.41085 12.22510 466 ft 13 kts 266°
2026-05-07 19:39 51.41078 12.22349 464 ft 16 kts 266°
2026-05-07 19:39 51.41073 12.22225 463 ft 18 kts 266°
2026-05-07 19:40 51.41060 12.21972 464 ft 11 kts 265°
2026-05-07 19:40 51.41053 12.21825 465 ft 15 kts 265°
2026-05-07 19:40 51.41044 12.21646 462 ft 18 kts 265°
2026-05-07 19:40 51.41034 12.21440 459 ft 19 kts 265°
2026-05-07 19:41 51.41024 12.21216 456 ft 21 kts 266°
2026-05-07 19:41 51.41017 12.21061 451 ft 14 kts 265°
2026-05-07 19:41 51.41009 12.20891 441 ft 16 kts 265°
2026-05-07 19:41 51.41000 12.20705 440 ft 12 kts 265°
2026-05-07 19:42 51.40993 12.20562 442 ft 14 kts 265°
2026-05-07 19:42 51.40984 12.20474 437 ft 9 kts 230°
2026-05-07 19:42 51.40934 12.20419 435 ft 8 kts 228°
2026-05-07 19:42 51.40920 12.20312 442 ft 12 kts 266°
2026-05-07 19:43 51.40914 12.20176 440 ft 14 kts 264°
2026-05-07 19:43 51.40910 12.20096 444 ft 6 kts 266°
2026-05-07 19:43 51.40908 12.20069 444 ft 0 kts 256°
2026-05-07 19:44 51.40900 12.20048 432 ft 5 kts 228°
2026-05-07 19:44 51.40862 12.20053 437 ft 6 kts 160°
2026-05-07 19:44 51.40825 12.20063 432 ft 4 kts 176°
2026-05-07 19:44 51.40805 12.20065 439 ft 4 kts 177°
2026-05-07 19:45 51.40802 12.20065 440 ft 0 kts 177°
2026-05-07 19:46 51.40801 12.20029 437 ft 0 kts 177°
2026-05-07 19:47 51.40804 12.20064 439 ft 0 kts 175°